| time (UTC) | temp F | wind direction | speed knots | gust knots | rain 1hr in | rain 24hr in | rain mn in | humidity % | barometer mb |
| 20260504221531 | 76 | 236 | 7.0 | 0.0 | 0.00 | 0.00 | 0.00 | 40 | 847.7 |
| 20260504220054 | 76 | 171 | 5.2 | 0.0 | 0.00 | 0.00 | 0.00 | 39 | 847.7 |
| 20260504214518 | 75 | 185 | 7.0 | 0.0 | 0.00 | 0.00 | 0.00 | 40 | 847.7 |
| 20260504213047 | 76 | 234 | 4.3 | 0.0 | 0.00 | 0.00 | 0.00 | 38 | 847.8 |
| 20260504211502 | 76 | 208 | 6.1 | 0.0 | 0.00 | 0.00 | 0.00 | 38 | 847.9 |
| 20260504210031 | 76 | 205 | 5.2 | 0.0 | 0.00 | 0.00 | 0.00 | 39 | 847.8 |
| 20260504204547 | 75 | 205 | 7.8 | 0.0 | 0.00 | 0.00 | 0.00 | 39 | 847.9 |
| 20260504203005 | 76 | 138 | 7.0 | 0.0 | 0.00 | 0.00 | 0.00 | 40 | 847.9 |
| 20260504201534 | 76 | 174 | 6.1 | 0.0 | 0.00 | 0.00 | 0.00 | 39 | 848.1 |
| 20260504194522 | 76 | 180 | 4.3 | 0.0 | 0.00 | 0.00 | 0.00 | 38 | 848.3 |
| 20260504193040 | 74 | 292 | 5.2 | 0.0 | 0.00 | 0.00 | 0.00 | 39 | 848.6 |
| 20260504191614 | 75 | 271 | 7.8 | 0.0 | 0.00 | 0.00 | 0.00 | 39 | 848.9 |
| 20260504190026 | 75 | 286 | 9.6 | 0.0 | 0.00 | 0.00 | 0.00 | 40 | 849.0 |
| 20260504184549 | 75 | 232 | 6.1 | 0.0 | 0.00 | 0.00 | 0.00 | 39 | 849.0 |
| 20260504183005 | 73 | 238 | 6.1 | 0.0 | 0.00 | 0.00 | 0.00 | 42 | 849.3 |
| 20260504181528 | 73 | 360 | 5.2 | 0.0 | 0.00 | 0.00 | 0.00 | 43 | 849.4 |
| 20260504180051 | 72 | 295 | 4.3 | 0.0 | 0.00 | 0.00 | 0.00 | 42 | 849.5 |
| 20260504174513 | 73 | 132 | 4.3 | 0.0 | 0.00 | 0.00 | 0.00 | 43 | 849.6 |
| 20260504173032 | 71 | 243 | 7.8 | 0.0 | 0.00 | 0.00 | 0.00 | 44 | 849.8 |
| 20260504171553 | 70 | 258 | 9.6 | 0.0 | 0.00 | 0.00 | 0.00 | 43 | 850.0 |